Find Starlink 34903

NORAD ID: 65372 Int'l Des: 2025-190 Owner: SPXS Country: US Constellation: starlink operational
LEOCIRCULAR

当前视图

正在加载3D地球...

关于 Starlink 34903

正在加载描述...

即将过境

Passes for default location (London). Set your location on the main map for personalized predictions.

高度历史

Loading altitude history...

两行轨道根数

1 65372U 25190X 26159.12565230 .00024583 00000-0 83950-3 0 9997
2 65372 53.1604 107.9432 0001483 90.4206 269.6965 15.30194777 43607
Epoch: Jun 8, 2026 • Age: 20 hours

当前状态

高度 475.9 km
速度 7.63 km/s
星下点 0.73°N, 143.77°W
发射日期 Aug 28, 2025
运行时间 0.7 years
类型 internet

技术详情

分类 Payload
质量 575.00 kg
干质量 530.00 kg
总质量 575.00 kg
长度 0.30 m
直径 4.10 m
跨度 29.00 m
形状 Box + pan
制造商 SPXS
平台类型 Starlink V2MO
阶段状态 In Orbit
所有者/国家 SPXS/US

Most Searched